DW0435 Weather Reports


time (UTC)temp
C
wind
direction
speed
KPH
gust
KPH
rain 1hr
cm
rain 24hr
cm
rain mn
cm
humidity
%
barometer
mb
20260507180559 31 233 3.2 16.1 0.00 0.00 0.00 64 1013.3
20260507180500 31 165 3.2 16.1 0.00 0.00 0.00 64 1013.6
20260507180105 31 148 8.0 16.1 0.00 0.00 0.00 63 1013.2
20260507180004 31 171 12.9 16.1 0.00 0.00 0.00 63 1013.6
20260507175600 31 133 8.0 16.1 0.00 0.00 0.00 63 1013.3
20260507175502 31 169 16.1 16.1 0.00 0.00 0.00 63 1013.6
20260507175100 31 108 4.8 16.1 0.00 0.00 0.00 63 1013.3
20260507175002 31 190 8.0 16.1 0.00 0.00 0.00 63 1013.7
20260507174605 31 164 4.8 16.1 0.00 0.00 0.00 62 1013.5
20260507174059 32 169 8.0 22.5 0.00 0.00 0.00 61 1013.5
20260507174000 32 168 14.5 22.5 0.00 0.00 0.00 60 1013.8
20260507173700 32 107 11.3 22.5 0.00 0.00 0.00 60 1013.5
20260507173115 32 111 6.4 19.3 0.00 0.00 0.00 60 1013.6
20260507172600 32 150 9.7 19.3 0.00 0.00 0.00 59 1013.7
20260507172502 32 157 9.7 17.7 0.00 0.00 0.00 59 1014.0
20260507172058 32 194 6.4 19.3 0.00 0.00 0.00 60 1013.8
20260507172000 32 148 6.4 19.3 0.00 0.00 0.00 59 1014.1
20260507171600 32 123 9.7 19.3 0.00 0.00 0.00 59 1013.8
20260507171508 32 125 11.3 19.3 0.00 0.00 0.00 59 1014.0
20260507171103 32 167 6.4 16.1 0.00 0.00 0.00 59 1013.9
20260507171000 32 159 9.7 16.1 0.00 0.00 0.00 59 1014.1
20260507170600 32 109 8.0 16.1 0.00 0.00 0.00 58 1013.9
20260507170500 32 145 6.4 19.3 0.00 0.00 0.00 59 1014.2
20260507170101 32 131 8.0 19.3 0.00 0.00 0.00 60 1014.0
20260507170004 32 227 9.7 19.3 0.00 0.00 0.00 60 1014.4
20260507170002 32 227 9.7 19.3 0.00 0.00 0.00 60 1014.2
20260507165600 32 134 6.4 19.3 0.00 0.00 0.00 60 1014.2
20260507165502 32 185 4.8 17.7 0.00 0.00 0.00 60 1014.4
20260507165100 32 163 6.4 17.7 0.00 0.00 0.00 59 1014.1
20260507165000 32 215 6.4 17.7 0.00 0.00 0.00 58 1014.4
20260507164633 32 119 9.7 17.7 0.00 0.00 0.00 58 1014.2
20260507164100 32 101 11.3 17.7 0.00 0.00 0.00 57 1014.4
20260507164001 32 96 9.7 17.7 0.00 0.00 0.00 58 1014.7
20260507163559 32 209 9.7 20.9 0.00 0.00 0.00 57 1014.4
20260507163501 32 113 17.7 22.5 0.00 0.00 0.00 58 1014.7
20260507163102 32 133 9.7 22.5 0.00 0.00 0.00 58 1014.4
20260507162559 32 90 8.0 24.1 0.00 0.00 0.00 58 1014.5
20260507162200 32 149 8.0 24.1 0.00 0.00 0.00 58 1014.5
20260507162000 32 119 8.0 24.1 0.00 0.00 0.00 58 1014.8
20260507161604 32 147 11.3 19.3 0.00 0.00 0.00 59 1014.6
20260507161100 32 138 6.4 17.7 0.00 0.00 0.00 60 1014.5
20260507161001 32 118 11.3 20.9 0.00 0.00 0.00 60 1014.8
20260507160659 32 147 6.4 20.9 0.00 0.00 0.00 61 1014.6
20260507160100 32 49 9.7 17.7 0.00 0.00 0.00 61 1014.7
20260507155559 32 112 8.0 20.9 0.00 0.00 0.00 61 1014.7
20260507155500 32 142 8.0 20.9 0.00 0.00 0.00 61 1015.0
20260507155059 32 169 6.4 20.9 0.00 0.00 0.00 59 1014.8
20260507154601 32 163 6.4 19.3 0.00 0.00 0.00 60 1014.8
20260507154100 32 144 8.0 19.3 0.00 0.00 0.00 60 1014.9
20260507154001 32 167 14.5 19.3 0.00 0.00 0.00 61 1015.1
20260507153559 31 105 4.8 19.3 0.00 0.00 0.00 62 1014.9
20260507153502 31 135 14.5 19.3 0.00 0.00 0.00 62 1015.1
20260507153059 31 130 11.3 19.3 0.00 0.00 0.00 61 1014.9
20260507152602 31 93 6.4 20.9 0.00 0.00 0.00 61 1014.9
20260507152500 31 128 3.2 20.9 0.00 0.00 0.00 61 1015.1
20260507152100 31 113 11.3 20.9 0.00 0.00 0.00 62 1014.9
20260507151559 31 111 6.4 16.1 0.00 0.00 0.00 62 1015.0
20260507151100 31 36 3.2 20.9 0.00 0.00 0.00 62 1015.0
20260507151002 31 94 3.2 20.9 0.00 0.00 0.00 62 1015.3
20260507150600 31 94 4.8 20.9 0.00 0.00 0.00 60 1015.1
20260507150501 31 162 6.4 20.9 0.00 0.00 0.00 61 1015.3
20260507150100 31 107 12.9 19.3 0.00 0.00 0.00 60 1015.0
20260507145601 31 97 4.8 17.7 0.00 0.00 0.00 63 1015.0
20260507145500 31 61 3.2 17.7 0.00 0.00 0.00 62 1015.3
20260507145159 31 166 6.4 17.7 0.00 0.00 0.00 62 1015.0
20260507145002 31 115 9.7 16.1 0.00 0.00 0.00 62 1015.3
20260507144602 31 135 8.0 20.9 0.00 0.00 0.00 61 1015.1
20260507144100 31 92 9.7 20.9 0.00 0.00 0.00 61 1015.1
20260507144000 31 76 8.0 16.1 0.00 0.00 0.00 62 1015.4
20260507143559 31 108 8.0 19.3 0.00 0.00 0.00 62 1015.2
20260507143501 31 133 12.9 19.3 0.00 0.00 0.00 61 1015.5
20260507143119 31 162 4.8 19.3 0.00 0.00 0.00 63 1015.2
20260507142600 31 130 8.0 16.1 0.00 0.00 0.00 62 1015.3
20260507142501 31 115 9.7 16.1 0.00 0.00 0.00 62 1015.6
20260507142159 31 86 4.8 16.1 0.00 0.00 0.00 62 1015.3
20260507142000 31 116 4.8 16.1 0.00 0.00 0.00 62 1015.6
20260507141605 31 138 8.0 19.3 0.00 0.00 0.00 62 1015.3
20260507141059 31 107 9.7 19.3 0.00 0.00 0.00 65 1015.3
20260507140502 31 65 6.4 17.7 0.00 0.00 0.00 65 1015.5
20260507140100 30 348 8.0 17.7 0.00 0.00 0.00 66 1015.3
20260507135558 30 124 6.4 16.1 0.00 0.00 0.00 65 1015.3
20260507135502 30 107 6.4 17.7 0.00 0.00 0.00 65 1015.5
20260507135159 30 117 4.8 17.7 0.00 0.00 0.00 64 1015.2
20260507135001 31 127 12.9 17.7 0.00 0.00 0.00 63 1015.6
20260507134600 30 102 4.8 17.7 0.00 0.00 0.00 64 1015.3
20260507134059 30 111 8.0 17.7 0.00 0.00 0.00 66 1015.2
20260507134000 30 90 14.5 20.9 0.00 0.00 0.00 66 1015.5
20260507133600 30 32 8.0 20.9 0.00 0.00 0.00 66 1015.3
20260507133500 30 59 6.4 20.9 0.00 0.00 0.00 66 1015.5
20260507133100 30 122 9.7 20.9 0.00 0.00 0.00 65 1015.2
20260507132559 30 129 6.4 19.3 0.00 0.00 0.00 66 1015.1
20260507132101 30 111 8.0 19.3 0.00 0.00 0.00 66 1015.2
20260507132000 30 128 6.4 19.3 0.00 0.00 0.00 66 1015.4
20260507131606 30 124 8.0 17.7 0.00 0.00 0.00 65 1015.1
20260507131103 29 80 6.4 16.1 0.00 0.00 0.00 68 1015.1
20260507131002 29 120 12.9 16.1 0.00 0.00 0.00 67 1015.4
20260507130600 29 105 8.0 16.1 0.00 0.00 0.00 68 1015.2
20260507130501 29 91 6.4 16.1 0.00 0.00 0.00 68 1015.4
20260507130058 29 97 3.2 17.7 0.00 0.00 0.00 69 1015.1
20260507125558 29 108 8.0 17.7 0.00 0.00 0.00 68 1015.0
20260507125500 29 82 8.0 16.1 0.00 0.00 0.00 68 1015.3
20260507125157 29 88 4.8 16.1 0.00 0.00 0.00 70 1015.0
20260507124605 28 64 6.4 17.7 0.00 0.00 0.00 71 1015.1
20260507124058 28 118 6.4 17.7 0.00 0.00 0.00 70 1015.0
20260507124001 28 117 3.2 17.7 0.00 0.00 0.00 71 1015.3
20260507123659 28 124 8.0 16.1 0.00 0.00 0.00 71 1015.0
20260507123501 28 109 9.7 16.1 0.00 0.00 0.00 71 1015.2
20260507123057 28 95 9.7 16.1 0.00 0.00 0.00 71 1014.9
20260507122558 28 81 9.7 17.7 0.00 0.00 0.00 72 1014.8
20260507122058 28 108 9.7 17.7 0.00 0.00 0.00 72 1014.8
20260507122000 28 64 9.7 17.7 0.00 0.00 0.00 72 1015.0
20260507121558 28 127 9.7 17.7 0.00 0.00 0.00 73 1014.6
20260507121059 28 97 11.3 17.7 0.00 0.00 0.00 72 1014.5
20260507121001 28 101 14.5 17.7 0.00 0.00 0.00 72 1014.8
20260507120558 28 100 4.8 17.7 0.00 0.00 0.00 73 1014.5
20260507120501 28 84 4.8 17.7 0.00 0.00 0.00 73 1014.7
20260507120100 27 136 4.8 17.7 0.00 0.00 0.00 74 1014.4
20260507120006 27 104 3.2 17.7 0.00 0.00 0.00 73 1014.7
20260507115559 27 158 6.4 16.1 0.00 0.00 0.00 74 1014.4
20260507115503 27 110 9.7 17.7 0.00 0.00 0.00 74 1014.6
20260507115100 27 123 9.7 17.7 0.00 0.00 0.00 74 1014.4
20260507115001 27 121 12.9 17.7 0.00 0.00 0.00 74 1014.6
20260507114610 27 108 6.4 14.5 0.00 0.00 0.00 76 1014.4
20260507114059 27 211 4.8 11.3 0.00 0.00 0.00 78 1014.3
20260507113602 26 94 4.8 9.7 0.00 0.00 0.00 79 1014.3
20260507113500 26 57 6.4 9.7 0.00 0.00 0.00 79 1014.5
20260507113129 26 65 3.2 4.8 0.00 0.00 0.00 80 1014.4
20260507112559 25 28 1.6 4.8 0.00 0.00 0.00 81 1014.3
20260507112501 25 93 1.6 4.8 0.00 0.00 0.00 81 1014.6
20260507112100 25 50 3.2 4.8 0.00 0.00 0.00 81 1014.4
20260507112001 25 57 3.2 4.8 0.00 0.00 0.00 81 1014.6
20260507111601 25 55 0.0 1.6 0.00 0.00 0.00 82 1014.4
20260507111100 25 55 0.0 3.2 0.00 0.00 0.00 82 1014.4
20260507111000 25 55 0.0 3.2 0.00 0.00 0.00 82 1014.7
20260507110700 25 360 0.0 3.2 0.00 0.00 0.00 83 1014.4
20260507110502 24 360 0.0 3.2 0.00 0.00 0.00 84 1014.6
20260507110059 24 92 0.0 0.0 0.00 0.00 0.00 84 1014.5
20260507105559 24 56 0.0 3.2 0.00 0.00 0.00 84 1014.5
20260507105059 24 55 0.0 4.8 0.00 0.00 0.00 83 1014.4
20260507105000 24 55 0.0 4.8 0.00 0.00 0.00 83 1014.6
20260507104600 25 32 1.6 6.4 0.00 0.00 0.00 82 1014.3
20260507104508 25 74 3.2 6.4 0.00 0.00 0.00 82 1014.6
20260507104100 25 125 1.6 9.7 0.00 0.00 0.00 81 1014.3
20260507104000 25 125 1.6 9.7 0.00 0.00 0.00 81 1014.5
20260507103700 25 128 1.6 9.7 0.00 0.00 0.00 82 1014.3
20260507103500 24 151 3.2 8.0 0.00 0.00 0.00 82 1014.5
20260507103059 24 147 3.2 8.0 0.00 0.00 0.00 82 1014.2
20260507102559 24 136 3.2 6.4 0.00 0.00 0.00 82 1014.1
20260507102500 24 157 4.8 6.4 0.00 0.00 0.00 82 1014.4
20260507102059 24 131 1.6 4.8 0.00 0.00 0.00 83 1014.2
20260507102002 24 132 0.0 4.8 0.00 0.00 0.00 83 1014.4
20260507101559 23 99 1.6 4.8 0.00 0.00 0.00 83 1014.1
20260507101059 23 114 1.6 4.8 0.00 0.00 0.00 83 1013.9
20260507100604 23 142 0.0 4.8 0.00 0.00 0.00 84 1013.9
20260507100501 23 117 0.0 4.8 0.00 0.00 0.00 84 1014.1
20260507100121 23 118 1.6 9.7 0.00 0.00 0.00 84 1013.7
20260507095558 23 360 1.6 9.7 0.00 0.00 0.00 85 1013.6
20260507095058 23 121 1.6 4.8 0.00 0.00 0.00 85 1013.6
20260507095000 23 80 3.2 4.8 0.00 0.00 0.00 85 1013.8
20260507094659 23 78 1.6 4.8 0.00 0.00 0.00 85 1013.5
20260507094500 23 82 3.2 4.8 0.00 0.00 0.00 85 1013.8
20260507094058 23 78 1.6 4.8 0.00 0.00 0.00 85 1013.6
20260507093559 23 85 1.6 4.8 0.00 0.00 0.00 85 1013.5
20260507093459 23 135 1.6 4.8 0.00 0.00 0.00 85 1013.8
20260507093058 23 86 1.6 4.8 0.00 0.00 0.00 85 1013.6
20260507092959 23 98 3.2 4.8 0.00 0.00 0.00 85 1013.9
20260507092558 23 89 1.6 4.8 0.00 0.00 0.00 86 1013.6
20260507092058 22 67 1.6 4.8 0.00 0.00 0.00 86 1013.6
20260507091659 22 134 1.6 4.8 0.00 0.00 0.00 86 1013.6
20260507091459 22 79 3.2 4.8 0.00 0.00 0.00 86 1013.9
20260507091101 22 127 1.6 4.8 0.00 0.00 0.00 86 1013.7
20260507090559 22 83 1.6 4.8 0.00 0.00 0.00 85 1013.7
20260507090500 22 89 3.2 4.8 0.00 0.00 0.00 85 1014.0
20260507090100 22 135 1.6 4.8 0.00 0.00 0.00 86 1013.7
20260507085959 22 112 3.2 4.8 0.00 0.00 0.00 85 1014.0
20260507085559 22 105 1.6 4.8 0.00 0.00 0.00 86 1013.7
20260507085500 22 95 1.6 4.8 0.00 0.00 0.00 86 1014.0
20260507085059 22 360 0.0 4.8 0.00 0.00 0.00 86 1013.7
20260507085001 22 360 1.6 4.8 0.00 0.00 0.00 86 1014.0
20260507084610 22 360 1.6 4.8 0.00 0.00 0.00 86 1013.8
20260507084500 22 360 1.6 4.8 0.00 0.00 0.00 86 1014.0
20260507084059 22 360 0.0 4.8 0.00 0.00 0.00 85 1013.7
20260507083959 22 360 0.0 4.8 0.00 0.00 0.00 85 1014.0
20260507083559 22 360 1.6 4.8 0.00 0.00 0.00 85 1013.8
20260507083100 22 360 1.6 3.2 0.00 0.00 0.00 86 1013.9
20260507083001 22 360 1.6 3.2 0.00 0.00 0.00 86 1014.1
20260507082600 22 360 0.0 3.2 0.00 0.00 0.00 86 1013.8
20260507082501 22 360 0.0 3.2 0.00 0.00 0.00 86 1014.1
20260507082058 22 360 0.0 3.2 0.00 0.00 0.00 85 1013.9
20260507082001 22 360 0.0 0.0 0.00 0.00 0.00 86 1014.1
20260507081602 22 360 0.0 1.6 0.00 0.00 0.00 87 1013.8
20260507081505 22 360 0.0 1.6 0.00 0.00 0.00 86 1013.7
20260507081459 22 360 0.0 1.6 0.00 0.00 0.00 86 1014.0
20260507081059 22 117 0.0 1.6 0.00 0.00 0.00 86 1013.7
20260507081000 22 117 0.0 1.6 0.00 0.00 0.00 86 1014.0
20260507080600 22 69 0.0 0.0 0.00 0.00 0.00 86 1013.7
20260507080100 22 69 0.0 1.6 0.00 0.00 0.00 86 1013.6
20260507075559 22 68 0.0 3.2 0.00 0.00 0.00 86 1013.6
20260507075500 22 74 0.0 3.2 0.00 0.00 0.00 85 1013.9
20260507075059 22 88 0.0 4.8 0.00 0.00 0.00 85 1013.6
20260507074959 22 90 0.0 4.8 0.00 0.00 0.00 85 1013.9
20260507074603 23 80 1.6 4.8 0.00 0.00 0.00 84 1013.6
20260507074501 23 92 1.6 4.8 0.00 0.00 0.00 85 1013.9
20260507074101 23 360 0.0 6.4 0.00 0.00 0.00 83 1013.6
20260507074000 23 50 1.6 6.4 0.00 0.00 0.00 83 1013.9
20260507073602 23 94 1.6 6.4 0.00 0.00 0.00 82 1013.7
20260507073501 23 125 1.6 6.4 0.00 0.00 0.00 82 1013.9
20260507073103 23 101 1.6 4.8 0.00 0.00 0.00 82 1013.7
20260507072559 23 128 0.0 4.8 0.00 0.00 0.00 82 1013.7
20260507072059 23 126 0.0 6.4 0.00 0.00 0.00 82 1013.9
20260507072000 23 125 1.6 6.4 0.00 0.00 0.00 82 1014.1
20260507071559 23 134 1.6 4.8 0.00 0.00 0.00 82 1013.9
20260507071502 23 129 4.8 4.8 0.00 0.00 0.00 82 1014.1
20260507071059 23 149 0.0 6.4 0.00 0.00 0.00 83 1013.9
20260507071001 23 130 0.0 6.4 0.00 0.00 0.00 83 1014.1
20260507070603 23 117 1.6 6.4 0.00 0.00 0.00 84 1014.1
20260507070106 23 110 3.2 8.0 0.00 0.00 0.00 84 1014.0
20260507070009 23 73 3.2 8.0 0.00 0.00 0.00 84 1014.0
20260507065603 23 122 3.2 8.0 0.00 0.00 0.00 85 1014.0
20260507065500 23 133 3.2 4.8 0.00 0.00 0.00 85 1014.3
20260507065059 22 105 0.0 3.2 0.00 0.00 0.00 85 1014.1
20260507065000 22 101 1.6 3.2 0.00 0.00 0.00 85 1014.4
20260507064559 23 98 1.6 3.2 0.00 0.00 0.00 85 1014.2
20260507064059 23 61 1.6 4.8 0.00 0.00 0.00 85 1014.3
20260507064001 23 62 1.6 4.8 0.00 0.00 0.00 85 1014.5
20260507063601 23 66 1.6 4.8 0.00 0.00 0.00 85 1014.3
20260507063500 23 40 3.2 6.4 0.00 0.00 0.00 85 1014.6
20260507063059 23 72 1.6 6.4 0.00 0.00 0.00 84 1014.4
20260507063000 23 360 3.2 6.4 0.00 0.00 0.00 84 1014.6
20260507062559 23 130 3.2 4.8 0.00 0.00 0.00 84 1014.4
20260507062459 23 97 1.6 4.8 0.00 0.00 0.00 84 1014.7
20260507062100 23 84 1.6 4.8 0.00 0.00 0.00 84 1014.4
20260507061600 23 69 1.6 4.8 0.00 0.00 0.00 85 1014.5
20260507061502 23 101 4.8 4.8 0.00 0.00 0.00 85 1014.7
20260507061059 23 142 1.6 4.8 0.00 0.00 0.00 85 1014.6
20260507061001 23 141 1.6 4.8 0.00 0.00 0.00 85 1014.8
20260507060604 23 52 0.0 4.8 0.00 0.00 0.00 86 1014.7
20260507060500 23 360 0.0 4.8 0.00 0.00 0.00 86 1014.9
20260507060004 23 36 1.6 3.2 0.00 0.00 0.00 86 1015.0
20260507060002 23 36 1.6 3.2 0.00 0.00 0.00 86 1014.7
20260507055600 23 40 1.6 4.8 0.00 0.00 0.00 86 1014.8
20260507055501 23 39 1.6 4.8 0.00 0.00 0.00 86 1015.0
20260507055059 23 38 1.6 4.8 0.00 0.00 0.00 86 1014.8
20260507055000 23 49 3.2 4.8 0.00 0.00 0.00 86 1015.0
20260507054600 23 33 0.0 3.2 0.00 0.00 0.00 86 1014.9
20260507054501 23 34 0.0 3.2 0.00 0.00 0.00 86 1015.2
20260507054101 23 35 1.6 4.8 0.00 0.00 0.00 86 1014.9
20260507054010 23 34 1.6 4.8 0.00 0.00 0.00 86 1015.2
20260507053559 23 42 1.6 4.8 0.00 0.00 0.00 86 1014.9
20260507053501 23 51 3.2 3.2 0.00 0.00 0.00 87 1015.2
20260507053100 23 43 1.6 3.2 0.00 0.00 0.00 86 1015.0
20260507053001 23 77 1.6 3.2 0.00 0.00 0.00 86 1015.3
20260507052602 23 42 1.6 4.8 0.00 0.00 0.00 87 1015.1
20260507052500 23 41 1.6 4.8 0.00 0.00 0.00 86 1015.4
20260507052058 23 34 1.6 4.8 0.00 0.00 0.00 86 1015.1
20260507052000 23 34 1.6 4.8 0.00 0.00 0.00 86 1015.4
20260507051559 23 69 0.0 3.2 0.00 0.00 0.00 86 1015.2
20260507051459 23 69 0.0 3.2 0.00 0.00 0.00 86 1015.5
20260507051058 23 37 1.6 6.4 0.00 0.00 0.00 86 1015.2
20260507051001 23 42 1.6 6.4 0.00 0.00 0.00 86 1015.5
20260507050603 23 100 1.6 9.7 0.00 0.00 0.00 86 1015.3
20260507050501 23 100 0.0 9.7 0.00 0.00 0.00 86 1015.6
20260507050058 23 117 3.2 9.7 0.00 0.00 0.00 87 1015.3
20260507050000 23 101 3.2 9.7 0.00 0.00 0.00 87 1015.6
20260507045601 23 134 1.6 4.8 0.00 0.00 0.00 87 1015.4
20260507045459 23 114 1.6 3.2 0.00 0.00 0.00 88 1015.7
20260507045059 23 70 1.6 3.2 0.00 0.00 0.00 88 1015.5
20260507045000 23 69 1.6 4.8 0.00 0.00 0.00 88 1015.8
20260507044613 23 55 0.0 4.8 0.00 0.00 0.00 88 1015.5
20260507044500 23 55 1.6 4.8 0.00 0.00 0.00 88 1015.8
20260507044058 23 34 1.6 4.8 0.00 0.00 0.00 87 1015.6
20260507044000 23 38 1.6 4.8 0.00 0.00 0.00 87 1015.8
20260507043559 23 32 1.6 4.8 0.00 0.00 0.00 87 1015.6
20260507043501 23 42 3.2 4.8 0.00 0.00 0.00 87 1015.9
20260507043114 23 44 1.6 4.8 0.00 0.00 0.00 87 1015.7
20260507043001 23 42 3.2 4.8 0.00 0.00 0.00 87 1016.0
20260507042559 23 51 1.6 3.2 0.00 0.00 0.00 87 1015.8
20260507042500 23 56 3.2 3.2 0.00 0.00 0.00 87 1016.0
20260507042059 23 40 1.6 4.8 0.00 0.00 0.00 87 1015.8
20260507042000 23 69 1.6 4.8 0.00 0.00 0.00 86 1016.0
20260507041604 24 73 1.6 4.8 0.00 0.00 0.00 86 1015.8
20260507041500 24 74 3.2 4.8 0.00 0.00 0.00 86 1016.1
20260507041059 24 74 1.6 4.8 0.00 0.00 0.00 86 1016.0
20260507041000 24 71 1.6 4.8 0.00 0.00 0.00 87 1016.2
20260507040559 24 75 1.6 4.8 0.00 0.00 0.00 86 1016.0
20260507040001 24 82 1.6 3.2 0.00 0.00 0.00 86 1016.1
20260507035503 24 111 3.2 3.2 0.00 0.00 0.00 86 1016.4
20260507035501 24 111 0.0 3.2 0.00 0.00 0.00 86 1016.1
20260507035003 24 134 0.0 3.2 0.00 0.00 0.00 87 1016.1
20260507034501 24 67 0.0 3.2 0.00 0.00 0.00 87 1016.2
20260507034003 24 41 3.2 3.2 0.00 0.00 0.00 87 1016.4
20260507033501 24 54 0.0 3.2 0.00 0.00 0.00 87 1016.2
20260507033006 24 38 1.6 3.2 0.00 0.00 0.00 87 1016.5
20260507033001 24 38 0.0 3.2 0.00 0.00 0.00 87 1016.3
20260507032503 24 39 3.2 3.2 0.00 0.00 0.00 87 1016.5
20260507032501 24 39 1.6 3.2 0.00 0.00 0.00 87 1016.3
20260507032005 24 70 1.6 3.2 0.00 0.00 0.00 87 1016.6
20260507032002 24 70 1.6 3.2 0.00 0.00 0.00 87 1016.3
20260507031505 24 86 1.6 4.8 0.00 0.00 0.00 87 1016.6
20260507031501 24 86 1.6 4.8 0.00 0.00 0.00 87 1016.3
20260507031004 24 61 4.8 4.8 0.00 0.00 0.00 87 1016.7
20260507031002 24 61 1.6 4.8 0.00 0.00 0.00 87 1016.5
20260507030504 24 46 1.6 4.8 0.00 0.00 0.00 87 1016.7
20260507030010 25 80 3.2 4.8 0.00 0.00 0.00 87 1016.7
20260507030001 25 80 1.6 4.8 0.00 0.00 0.00 87 1016.4
20260507025501 25 80 1.6 6.4 0.00 0.00 0.00 87 1016.4
20260507025002 25 100 3.2 6.4 0.00 0.00 0.00 87 1016.6
20260507024510 25 95 3.2 4.8 0.00 0.00 0.00 86 1016.6
20260507024501 25 95 3.2 4.8 0.00 0.00 0.00 86 1016.4
20260507024001 25 70 1.6 4.8 0.00 0.00 0.00 86 1016.4
20260507023503 25 76 1.6 4.8 0.00 0.00 0.00 86 1016.5
20260507023111 25 80 0.0 4.8 0.00 0.00 0.00 86 1016.3
20260507022501 25 58 0.0 3.2 0.00 0.00 0.00 86 1016.3
20260507022004 25 55 1.6 3.2 0.00 0.00 0.00 86 1016.5
20260507021501 25 103 1.6 3.2 0.00 0.00 0.00 85 1016.2
20260507021005 25 109 1.6 4.8 0.00 0.00 0.00 85 1016.1
20260507020502 25 107 3.2 4.8 0.00 0.00 0.00 84 1016.3
20260507020002 26 104 0.0 3.2 0.00 0.00 0.00 84 1016.2
20260507015502 26 107 0.0 3.2 0.00 0.00 0.00 84 1016.1
20260507015005 26 360 0.0 3.2 0.00 0.00 0.00 84 1016.0
20260507015003 26 360 0.0 3.2 0.00 0.00 0.00 84 1016.2
20260507014602 26 360 1.6 3.2 0.00 0.00 0.00 83 1016.0
20260507014004 26 110 1.6 4.8 0.00 0.00 0.00 82 1016.1
20260507014001 26 110 0.0 4.8 0.00 0.00 0.00 82 1015.8
20260507013503 26 360 0.0 9.7 0.00 0.00 0.00 82 1016.1
20260507013500 26 360 1.6 9.7 0.00 0.00 0.00 82 1015.8
20260507013102 26 360 3.2 9.7 0.00 0.00 0.00 82 1015.8
20260507012502 26 92 0.0 3.2 0.00 0.00 0.00 82 1016.0
20260507012003 26 92 1.6 4.8 0.00 0.00 0.00 82 1015.7
20260507011602 26 360 1.6 4.8 0.00 0.00 0.00 82 1015.7
20260507011001 27 53 1.6 4.8 0.00 0.00 0.00 80 1015.6
20260507010501 27 146 1.6 4.8 0.00 0.00 0.00 79 1015.5
20260507010010 27 159 3.2 3.2 0.00 0.00 0.00 80 1015.9
20260507010001 27 159 1.6 3.2 0.00 0.00 0.00 80 1015.6
20260507005502 27 360 1.6 3.2 0.00 0.00 0.00 80 1015.6
20260507005001 27 163 1.6 3.2 0.00 0.00 0.00 79 1015.6
20260507004607 27 160 0.0 3.2 0.00 0.00 0.00 78 1015.5
20260507004002 27 162 0.0 4.8 0.00 0.00 0.00 79 1015.5
20260507003503 27 101 1.6 4.8 0.00 0.00 0.00 79 1015.7
20260507003001 27 57 0.0 3.2 0.00 0.00 0.00 79 1015.4
20260507002501 27 51 0.0 4.8 0.00 0.00 0.00 79 1015.4
20260507002003 27 50 1.6 4.8 0.00 0.00 0.00 79 1015.4
20260507001616 27 360 3.2 4.8 0.00 0.00 0.00 78 1015.3
20260507001003 27 360 1.6 4.8 0.00 0.00 0.00 78 1015.5
20260507000503 27 360 1.6 6.4 0.00 0.00 0.00 78 1015.5
20260507000501 27 360 1.6 6.4 0.00 0.00 0.00 78 1015.3
20260507000104 27 360 1.6 6.4 0.00 0.00 0.00 78 1015.3
20260506235501 27 360 1.6 6.4 0.00 0.00 0.00 78 1015.1
20260506235002 27 360 3.2 8.0 0.00 0.00 0.00 77 1015.3
20260506234603 27 360 1.6 8.0 0.00 0.00 0.00 76 1015.0
20260506234100 28 360 3.2 8.0 0.00 0.00 0.00 75 1015.0
20260506234002 28 360 4.8 6.4 0.00 0.00 0.00 75 1015.2
20260506233604 28 360 1.6 6.4 0.00 0.00 0.00 74 1014.8
20260506233502 28 360 1.6 6.4 0.00 0.00 0.00 73 1015.1
20260506233102 28 360 3.2 8.0 0.00 0.00 0.00 73 1014.8
20260506232601 28 184 4.8 12.9 0.00 0.00 0.00 73 1014.8
20260506232501 28 360 6.4 12.9 0.00 0.00 0.00 73 1015.0
20260506232001 28 179 3.2 12.9 0.00 0.00 0.00 73 1014.9
20260506231608 28 360 4.8 9.7 0.00 0.00 0.00 72 1014.6
20260506231101 28 360 4.8 12.9 0.00 0.00 0.00 72 1014.5
20260506231001 28 360 4.8 12.9 0.00 0.00 0.00 72 1014.7
20260506230602 28 360 6.4 12.9 0.00 0.00 0.00 72 1014.5
20260506230503 28 140 11.3 12.9 0.00 0.00 0.00 72 1014.7
20260506230010 28 155 3.2 14.5 0.00 0.00 0.00 72 1014.6
20260506230001 28 155 4.8 14.5 0.00 0.00 0.00 72 1014.3
20260506225503 28 112 6.4 16.1 0.00 0.00 0.00 72 1014.5
20260506225501 28 112 4.8 16.1 0.00 0.00 0.00 72 1014.3
20260506225002 28 165 8.0 16.1 0.00 0.00 0.00 71 1014.5
20260506224604 28 124 4.8 14.5 0.00 0.00 0.00 71 1014.2
20260506224002 29 130 11.3 16.1 0.00 0.00 0.00 70 1014.4
20260506224000 29 130 6.4 16.1 0.00 0.00 0.00 70 1014.2
20260506223502 29 123 11.3 17.7 0.00 0.00 0.00 69 1014.3
20260506223001 29 113 9.7 17.7 0.00 0.00 0.00 69 1014.0
20260506222503 29 360 4.8 14.5 0.00 0.00 0.00 69 1013.9
20260506222003 30 360 6.4 14.5 0.00 0.00 0.00 68 1014.1
20260506221501 30 360 6.4 20.9 0.00 0.00 0.00 67 1013.9
20260506221002 30 108 9.7 20.9 0.00 0.00 0.00 67 1013.8
20260506220501 30 150 11.3 22.5 0.00 0.00 0.00 67 1013.8
20260506220003 30 103 9.7 22.5 0.00 0.00 0.00 65 1013.8
20260506215504 30 129 11.3 22.5 0.00 0.00 0.00 65 1013.7
20260506215001 30 79 6.4 20.9 0.00 0.00 0.00 65 1013.7
20260506214603 30 84 9.7 20.9 0.00 0.00 0.00 65 1013.6
20260506214004 30 117 6.4 25.7 0.00 0.00 0.00 65 1013.8
20260506214002 30 117 8.0 25.7 0.00 0.00 0.00 65 1013.5
20260506213503 30 123 12.9 25.7 0.00 0.00 0.00 64 1013.6
20260506213106 30 184 9.7 19.3 0.00 0.00 0.00 64 1013.6
20260506212503 31 136 12.9 19.3 0.00 0.00 0.00 60 1013.7
20260506212501 31 136 12.9 19.3 0.00 0.00 0.00 60 1013.5
20260506212003 31 120 9.7 20.9 0.00 0.00 0.00 59 1013.5
20260506211502 31 101 9.7 20.9 0.00 0.00 0.00 59 1013.4
20260506211101 31 131 6.4 19.3 0.00 0.00 0.00 60 1013.3
20260506211001 31 92 3.2 19.3 0.00 0.00 0.00 60 1013.6
20260506210600 31 125 8.0 19.3 0.00 0.00 0.00 59 1013.4
20260506210502 31 107 16.1 19.3 0.00 0.00 0.00 60 1013.7
20260506210007 31 209 4.8 29.0 0.00 0.00 0.00 61 1013.7
20260506205503 31 126 11.3 29.0 0.00 0.00 0.00 60 1013.6
20260506205003 31 133 11.3 24.1 0.00 0.00 0.00 60 1013.6
20260506204505 31 162 11.3 24.1 0.00 0.00 0.00 59 1013.5
20260506204501 31 162 9.7 24.1 0.00 0.00 0.00 59 1013.2
20260506204003 31 134 8.0 20.9 0.00 0.00 0.00 59 1013.5
20260506203502 31 123 9.7 27.4 0.00 0.00 0.00 58 1013.2
20260506203001 31 86 12.9 27.4 0.00 0.00 0.00 58 1013.2
20260506202502 31 161 17.7 25.7 0.00 0.00 0.00 58 1013.5
20260506202003 31 128 12.9 20.9 0.00 0.00 0.00 59 1013.4
20260506201509 31 109 12.9 24.1 0.00 0.00 0.00 58 1013.5
20260506201501 31 109 12.9 24.1 0.00 0.00 0.00 58 1013.2
20260506201102 32 157 12.9 24.1 0.00 0.00 0.00 58 1013.2
20260506201001 32 133 16.1 24.1 0.00 0.00 0.00 56 1013.4
20260506200502 32 109 9.7 24.1 0.00 0.00 0.00 56 1013.4
20260506195504 32 137 12.9 27.4 0.00 0.00 0.00 57 1013.6
20260506195002 32 112 12.9 25.7 0.00 0.00 0.00 56 1013.4
20260506194505 32 151 14.5 25.7 0.00 0.00 0.00 54 1013.5
20260506194004 32 128 17.7 24.1 0.00 0.00 0.00 54 1013.7
20260506194002 32 128 9.7 24.1 0.00 0.00 0.00 54 1013.5
20260506193500 32 122 11.3 24.1 0.00 0.00 0.00 54 1013.4
20260506193010 32 164 8.0 22.5 0.00 0.00 0.00 53 1013.7
20260506193001 32 164 8.0 22.5 0.00 0.00 0.00 53 1013.4
20260506192502 32 139 9.7 20.9 0.00 0.00 0.00 52 1013.5
20260506192003 32 166 6.4 25.7 0.00 0.00 0.00 51 1013.8
20260506191502 32 173 11.3 25.7 0.00 0.00 0.00 51 1013.6
20260506191002 33 110 12.9 22.5 0.00 0.00 0.00 49 1014.0
20260506191000 33 110 11.3 22.5 0.00 0.00 0.00 49 1013.7
20260506190502 32 109 12.9 20.9 0.00 0.00 0.00 51 1013.7
20260506190006 32 121 11.3 24.1 0.00 0.00 0.00 51 1014.0
20260506185502 33 136 17.7 24.1 0.00 0.00 0.00 51 1014.0
20260506185500 33 136 9.7 24.1 0.00 0.00 0.00 51 1013.8
20260506185001 33 142 9.7 20.9 0.00 0.00 0.00 51 1013.7
20260506184603 32 94 9.7 22.5 0.00 0.00 0.00 51 1013.8
20260506184002 32 85 12.9 22.5 0.00 0.00 0.00 51 1014.2
20260506183502 32 85 8.0 20.9 0.00 0.00 0.00 49 1014.2
20260506183500 32 85 12.9 20.9 0.00 0.00 0.00 49 1014.0
20260506183002 32 217 3.2 19.3 0.00 0.00 0.00 52 1013.9
20260506182503 32 150 3.2 19.3 0.00 0.00 0.00 51 1014.3
20260506182003 32 116 14.5 20.9 0.00 0.00 0.00 51 1014.2
20260506181501 32 100 11.3 17.7 0.00 0.00 0.00 53 1014.1
20260506181004 32 111 6.4 19.3 0.00 0.00 0.00 52 1014.4
20260506181002 32 111 8.0 19.3 0.00 0.00 0.00 52 1014.1